When you browse on this site, cookies collect data to enhance your experience and personalize the content and advertising you see.
Visit our Privacy Policy to learn more. By continuing to use the site, you agree to this use of cookies and data.
  • en France
  • Liste des pays
  • À 7 jours
  • Température de l'eau
  • Carte météo
  • Widgets météo
  • user-avatar
    Se connecter

    Météo par heure à Aguililla

    Ce jour, 19 Septembre, Jeudi

    Heure Température Précipitation Vent Pression Humidité
    00:00 +21°C° 0.8 mm 1 m/s 676 mmHg 99%
    01:00 +21°C° 0.8 mm 1 m/s 676 mmHg 99%
    02:00 +18°C° 0.8 mm 0 m/s 676 mmHg 99%
    03:00 +18°C° 4.9 mm 0 m/s 676 mmHg 99%
    04:00 +18°C° 4.9 mm 0 m/s 675 mmHg 99%
    05:00 +18°C° 4.9 mm 0 m/s 675 mmHg 99%
    06:00 +19°C° 5.5 mm 0 m/s 676 mmHg 99%
    07:00 +19°C° 5.5 mm 0 m/s 677 mmHg 99%
    08:00 +19°C° 5.5 mm 0 m/s 677 mmHg 99%
    09:00 +19°C° 2.8 mm 0 m/s 677 mmHg 98%
    10:00 +20°C° 2.8 mm 0 m/s 677 mmHg 98%
    11:00 +20°C° 2.8 mm 0 m/s 677 mmHg 97%
    12:00 +21°C° 0.4 mm 0 m/s 677 mmHg 93%
    13:00 +22°C° 0.4 mm 0 m/s 676 mmHg 88%
    14:00 +25°C° 0.4 mm 1 m/s 676 mmHg 84%
    15:00 +25°C° 0.5 mm 1 m/s 676 mmHg 87%
    16:00 +24°C° 0.5 mm 1 m/s 675 mmHg 90%
    17:00 +24°C° 0.5 mm 1 m/s 675 mmHg 93%
    18:00 +23°C° 0.2 mm 1 m/s 675 mmHg 94%
    19:00 +22°C° 0.2 mm 1 m/s 675 mmHg 95%
    20:00 +19°C° 0.2 mm 0 m/s 676 mmHg 95%
    21:00 +19°C° 0 mm 0 m/s 676 mmHg 95%
    22:00 +18°C° 0 mm 0 m/s 675 mmHg 95%
    23:00 +18°C° 0 mm 0 m/s 675 mmHg 94%

    Demain, 20 Septembre, Vendredi

    Heure Température Précipitation Vent Pression Humidité
    00:00 +18°C° 0 mm 0 m/s 675 mmHg 94%
    01:00 +18°C° 0 mm 0 m/s 675 mmHg 94%
    02:00 +18°C° 0 mm 0 m/s 675 mmHg 94%
    03:00 +18°C° 0 mm 0 m/s 674 mmHg 94%
    04:00 +18°C° 0 mm 0 m/s 674 mmHg 93%
    05:00 +18°C° 0 mm 0 m/s 674 mmHg 93%
    06:00 +19°C° 0 mm 0 m/s 675 mmHg 91%
    07:00 +20°C° 0 mm 0 m/s 675 mmHg 88%
    08:00 +21°C° 0 mm 0 m/s 676 mmHg 86%
    09:00 +23°C° 0.1 mm 0 m/s 676 mmHg 80%
    10:00 +27°C° 0.1 mm 1 m/s 676 mmHg 74%
    11:00 +29°C° 0.1 mm 1 m/s 677 mmHg 68%
    12:00 +28°C° 1.7 mm 1 m/s 676 mmHg 73%
    13:00 +28°C° 1.7 mm 1 m/s 675 mmHg 77%
    14:00 +28°C° 1.7 mm 1 m/s 675 mmHg 82%
    15:00 +27°C° 1.7 mm 1 m/s 675 mmHg 86%
    16:00 +26°C° 1.7 mm 1 m/s 675 mmHg 89%
    17:00 +25°C° 1.7 mm 1 m/s 674 mmHg 92%
    18:00 +24°C° 1.7 mm 1 m/s 675 mmHg 93%
    19:00 +23°C° 1.7 mm 1 m/s 675 mmHg 94%
    20:00 +22°C° 1.7 mm 1 m/s 675 mmHg 95%
    21:00 +22°C° 0.2 mm 1 m/s 675 mmHg 94%
    22:00 +21°C° 0.2 mm 1 m/s 676 mmHg 94%
    23:00 +19°C° 0.2 mm 0 m/s 676 mmHg 94%

    Après-demain, 21 Septembre, Samedi

    Heure Température Précipitation Vent Pression Humidité
    00:00 +19°C° 0 mm 0 m/s 675 mmHg 94%
    01:00 +19°C° 0 mm 0 m/s 675 mmHg 95%
    02:00 +18°C° 0 mm 0 m/s 675 mmHg 95%
    03:00 +18°C° 0 mm 0 m/s 675 mmHg 95%
    04:00 +18°C° 0 mm 0 m/s 675 mmHg 96%
    05:00 +18°C° 0 mm 0 m/s 675 mmHg 96%
    06:00 +19°C° 0 mm 0 m/s 675 mmHg 95%
    07:00 +21°C° 0 mm 0 m/s 676 mmHg 93%
    08:00 +22°C° 0 mm 0 m/s 677 mmHg 92%
    09:00 +23°C° 0.1 mm 0 m/s 677 mmHg 86%
    10:00 +27°C° 0.1 mm 1 m/s 677 mmHg 80%
    11:00 +28°C° 0.1 mm 1 m/s 677 mmHg 74%
    12:00 +28°C° 0.8 mm 1 m/s 676 mmHg 76%
    13:00 +28°C° 0.8 mm 1 m/s 676 mmHg 78%
    14:00 +28°C° 0.8 mm 1 m/s 675 mmHg 80%
    15:00 +27°C° 0.8 mm 1 m/s 675 mmHg 84%
    16:00 +24°C° 0.8 mm 0 m/s 675 mmHg 88%
    17:00 +24°C° 0.8 mm 0 m/s 675 mmHg 91%
    18:00 +24°C° 0.4 mm 1 m/s 675 mmHg 92%
    19:00 +23°C° 0.4 mm 1 m/s 675 mmHg 93%
    20:00 +22°C° 0.4 mm 1 m/s 675 mmHg 94%
    21:00 +22°C° 0 mm 1 m/s 675 mmHg 93%
    22:00 +21°C° 0 mm 1 m/s 675 mmHg 93%
    23:00 +19°C° 0 mm 0 m/s 676 mmHg 92%

    22 Septembre, Dimanche

    Heure Température Précipitation Vent Pression Humidité
    00:00 +19°C° 0.2 mm 0 m/s 675 mmHg 92%
    01:00 +21°C° 0.2 mm 1 m/s 675 mmHg 93%
    02:00 +20°C° 0.2 mm 1 m/s 675 mmHg 93%
    03:00 +20°C° 0 mm 1 m/s 675 mmHg 92%
    04:00 +18°C° 0 mm 0 m/s 675 mmHg 92%
    05:00 +18°C° 0 mm 0 m/s 675 mmHg 92%
    06:00 +20°C° 0 mm 0 m/s 676 mmHg 90%
    07:00 +21°C° 0 mm 0 m/s 676 mmHg 88%
    08:00 +23°C° 0 mm 0 m/s 677 mmHg 86%
    09:00 +24°C° 0.3 mm 0 m/s 677 mmHg 82%
    10:00 +28°C° 0.3 mm 1 m/s 677 mmHg 77%
    11:00 +29°C° 0.3 mm 1 m/s 677 mmHg 73%
    12:00 +29°C° 1.1 mm 1 m/s 676 mmHg 75%
    13:00 +29°C° 1.1 mm 1 m/s 676 mmHg 76%
    14:00 +29°C° 1.1 mm 1 m/s 675 mmHg 78%
    15:00 +28°C° 0.6 mm 1 m/s 675 mmHg 82%
    16:00 +27°C° 0.6 mm 1 m/s 675 mmHg 86%
    17:00 +26°C° 0.6 mm 1 m/s 675 mmHg 90%
    18:00 +25°C° 1.1 mm 1 m/s 675 mmHg 92%
    19:00 +24°C° 1.1 mm 1 m/s 675 mmHg 94%
    20:00 +23°C° 1.1 mm 1 m/s 675 mmHg 96%
    21:00 +22°C° 0.6 mm 1 m/s 675 mmHg 96%
    22:00 +22°C° 0.6 mm 1 m/s 676 mmHg 96%
    23:00 +22°C° 0.6 mm 1 m/s 676 mmHg 96%

    23 Septembre, Lundi

    Heure Température Précipitation Vent Pression Humidité
    00:00 +21°C° 0.7 mm 1 m/s 676 mmHg 96%
    01:00 +19°C° 0.7 mm 0 m/s 675 mmHg 96%
    02:00 +19°C° 0.7 mm 0 m/s 675 mmHg 96%
    03:00 +19°C° 0.8 mm 0 m/s 675 mmHg 96%
    04:00 +19°C° 0.8 mm 0 m/s 675 mmHg 96%
    05:00 +19°C° 0.8 mm 0 m/s 675 mmHg 96%
    06:00 +20°C° 0.3 mm 0 m/s 676 mmHg 95%
    07:00 +21°C° 0.3 mm 0 m/s 677 mmHg 94%
    08:00 +22°C° 0.3 mm 0 m/s 677 mmHg 92%
    09:00 +23°C° 0.3 mm 0 m/s 677 mmHg 86%
    10:00 +25°C° 0.3 mm 0 m/s 678 mmHg 80%
    11:00 +27°C° 0.3 mm 0 m/s 678 mmHg 74%
    12:00 +26°C° 0.9 mm 0 m/s 677 mmHg 76%
    13:00 +26°C° 0.9 mm 0 m/s 676 mmHg 79%
    14:00 +26°C° 0.9 mm 0 m/s 676 mmHg 82%
    15:00 +25°C° 1 mm 0 m/s 676 mmHg 85%
    16:00 +26°C° 1 mm 1 m/s 675 mmHg 89%
    17:00 +25°C° 1 mm 1 m/s 675 mmHg 93%
    18:00 +24°C° 0.3 mm 1 m/s 675 mmHg 94%
    19:00 +23°C° 0.3 mm 1 m/s 675 mmHg 94%
    20:00 +22°C° 0.3 mm 1 m/s 676 mmHg 95%
    21:00 +22°C° 0.1 mm 1 m/s 676 mmHg 95%
    22:00 +22°C° 0.1 mm 1 m/s 676 mmHg 95%
    23:00 +21°C° 0.1 mm 1 m/s 676 mmHg 95%

    24 Septembre, Mardi

    Heure Température Précipitation Vent Pression Humidité
    00:00 +21°C° 0.6 mm 1 m/s 675 mmHg 95%
    01:00 +21°C° 0.6 mm 1 m/s 675 mmHg 96%
    02:00 +20°C° 0.6 mm 1 m/s 675 mmHg 96%
    03:00 +18°C° 0.2 mm 0 m/s 675 mmHg 96%
    04:00 +18°C° 0.2 mm 0 m/s 675 mmHg 95%
    05:00 +18°C° 0.2 mm 0 m/s 675 mmHg 95%
    06:00 +19°C° 0 mm 0 m/s 676 mmHg 93%
    07:00 +21°C° 0 mm 0 m/s 676 mmHg 91%
    08:00 +22°C° 0 mm 0 m/s 677 mmHg 89%
    09:00 +23°C° 0.3 mm 0 m/s 677 mmHg 84%
    10:00 +25°C° 0.3 mm 0 m/s 677 mmHg 79%
    11:00 +28°C° 0.3 mm 1 m/s 677 mmHg 74%
    12:00 +28°C° 1.4 mm 1 m/s 676 mmHg 77%
    13:00 +28°C° 1.4 mm 1 m/s 676 mmHg 80%
    14:00 +26°C° 1.4 mm 0 m/s 675 mmHg 83%
    15:00 +27°C° 1.7 mm 1 m/s 675 mmHg 86%
    16:00 +26°C° 1.7 mm 1 m/s 675 mmHg 89%
    17:00 +25°C° 1.7 mm 1 m/s 675 mmHg 93%
    18:00 +24°C° 1.7 mm 1 m/s 675 mmHg 94%
    19:00 +23°C° 1.7 mm 1 m/s 675 mmHg 95%
    20:00 +22°C° 1.7 mm 1 m/s 675 mmHg 96%
    21:00 +22°C° 1.9 mm 1 m/s 675 mmHg 97%
    22:00 +22°C° 1.9 mm 1 m/s 675 mmHg 97%
    23:00 +22°C° 1.9 mm 1 m/s 676 mmHg 97%
    Voir plus